Hanamaulu, HI

9:04 PM HST on February 06, 2016 (GMT -1000)
Lihue

Weather History for PHLI - February, 2011

Change the Weather History Date:

Thursday, February 24, 2011

  Actual Average Record
Temperature  
Mean Temperature 67 °F 72 °F  
Max Temperature 77 °F 78 °F 85 °F (1983)
Min Temperature 57 °F 66 °F 56 °F (1962)
Degree Days  
Heating Degree Days 0 0  
Month to date heating degree days 0 0  
Since 1 July heating degree days 0 0  
Cooling Degree Days 2 7  
Month to date cooling degree days 159 168  
Year to date cooling degree days 377 377  
Growing Degree Days 17 (Base 50)    
Moisture  
Dew Point 63 °F    
Average Humidity 85    
Maximum Humidity 100    
Minimum Humidity 69    
Precipitation  
Precipitation 0.00 in 0.12 in 0.75 in (1988)
Month to date precipitation 4.65 2.67  
Year to date precipitation 8.76 6.42  
Snow  
Snow 0.00 in - - ()
Month to date snowfall 0.0  
Since 1 July snowfall 0.0  
Snow Depth 0.00 in    
Sea Level Pressure  
Sea Level Pressure 29.99 in    
Wind  
Wind Speed 12 mph (NNE)    
Max Wind Speed 23 mph    
Max Gust Speed 39 mph    
Visibility 8 miles    
Events Fog , Rain , Thunderstorm    
T = Trace of Precipitation, MM = Missing Value Source: NWS Daily Summary

Daily Weather History Graph

Daily Weather History Graph

Search for Another Location

Airport or City:

Trip Planner

Search our weather history database for the weather conditions in past years. The results will help you decide how hot, cold, wet, or windy it might be!

Date:

Astronomy

Feb. 24, 2011 Rise Set
Actual Time 7:02 AM HST 6:39 PM HST
Civil Twilight 6:39 AM HST 7:01 PM HST
Nautical Twilight 6:13 AM HST 7:27 PM HST
Astronomical Twilight 5:47 AM HST 7:53 PM HST
Moon 12:44 AM HST (2/24) 11:49 AM HST (2/24)
Length of Visible Light 12h 21m
Length of Day
11h 36m
Waning Gibbous, 51% of the Moon is Illuminated
Feb 24
Waning Gibbous
Feb 24
Last Quarter
Mar 4
New
Mar 12
First Quarter
Mar 19
Full

Hourly Weather History & Observations

Time (HST) Temp. Dew Point Humidity Pressure Visibility Wind Dir Wind Speed Gust Speed Precip Events Conditions
12:02 AM 68.0 °F 68.0 °F 100% 30.01 in 10.0 mi NE 15.0 mph - 0.00 in Rain Light Rain
12:07 AM 66.2 °F 66.2 °F 100% 30.02 in 10.0 mi NE 15.0 mph - 0.00 in Rain , Thunderstorm Light Thunderstorms and Rain
12:31 AM 64.4 °F 64.4 °F 100% 30.02 in 1.8 mi Variable 3.5 mph - 0.08 in Rain , Thunderstorm Heavy Thunderstorms and Rain
12:39 AM 66.2 °F 66.2 °F 100% 30.04 in 2.0 mi NE 20.7 mph 33.4 mph 0.27 in Rain , Thunderstorm Thunderstorms and Rain
12:44 AM 62.6 °F 62.6 °F 100% 30.07 in 1.2 mi NNW 20.7 mph 36.8 mph 0.33 in Rain , Thunderstorm Heavy Thunderstorms and Rain
12:53 AM 57.0 °F 57.0 °F 100% 30.04 in 0.5 mi South 23.0 mph 39.1 mph 1.31 in Fog , Rain , Thunderstorm Heavy Thunderstorms and Rain
12:56 AM 57.2 °F 57.2 °F 100% 30.03 in 0.5 mi South 18.4 mph 39.1 mph 0.18 in Fog , Rain , Thunderstorm Heavy Thunderstorms and Rain
1:00 AM 57.2 °F 57.2 °F 100% 30.04 in 1.0 mi SSW 6.9 mph 36.8 mph 0.22 in Rain , Thunderstorm Heavy Thunderstorms and Rain
1:03 AM 57.2 °F 57.2 °F 100% 30.05 in 2.0 mi Variable 5.8 mph - 0.25 in Rain , Thunderstorm Heavy Thunderstorms and Rain
1:19 AM 57.2 °F 57.2 °F 100% 30.04 in 1.8 mi ENE 3.5 mph - 0.53 in Rain , Thunderstorm Heavy Thunderstorms and Rain
1:25 AM 57.2 °F 57.2 °F 100% 30.04 in 3.0 mi ESE 5.8 mph - 0.59 in Rain , Thunderstorm Heavy Thunderstorms and Rain
1:39 AM 57.2 °F 57.2 °F 100% 30.05 in 10.0 mi Variable 3.5 mph - 0.59 in Rain , Thunderstorm Light Thunderstorms and Rain
1:50 AM 57.2 °F 57.2 °F 100% 30.04 in 10.0 mi South 4.6 mph 17.3 mph 0.59 in Rain Light Rain
1:53 AM 57.9 °F 57.9 °F 100% 30.03 in 10.0 mi South 3.5 mph - 0.59 in Rain , Thunderstorm Light Thunderstorms and Rain
2:34 AM 57.2 °F 57.2 °F 100% 30.01 in 10.0 mi WNW 13.8 mph - 0.01 in Rain Light Rain
2:53 AM 60.1 °F 60.1 °F 100% 30.00 in 10.0 mi WNW 6.9 mph - 0.01 in   Partly Cloudy
3:53 AM 61.0 °F 61.0 °F 100% 29.96 in 10.0 mi WNW 4.6 mph - N/A   Scattered Clouds
4:53 AM 64.9 °F 64.6 °F 99% 29.96 in 10.0 mi NW 4.6 mph - N/A   Clear
5:53 AM 61.0 °F 61.0 °F 100% 29.97 in 10.0 mi NW 5.8 mph - N/A   Clear
6:53 AM 66.9 °F 62.4 °F 85% 29.98 in 10.0 mi NW 3.5 mph - N/A   Clear
7:53 AM 64.9 °F 61.3 °F 88% 29.98 in 10.0 mi WNW 6.9 mph - N/A   Clear
8:53 AM 66.9 °F 64.0 °F 90% 30.00 in 10.0 mi North 5.8 mph - N/A   Clear
8:56 AM 71.6 °F 64.4 °F 78% 30.01 in 10.0 mi North 6.9 mph - N/A   Clear
9:53 AM 71.8 °F 63.9 °F 76% 30.02 in 10.0 mi NNE 10.4 mph - N/A   Clear
10:53 AM 73.9 °F 66.0 °F 76% 30.01 in 10.0 mi NE 12.7 mph - N/A   Clear
11:53 AM 74.8 °F 64.9 °F 71% 29.99 in 10.0 mi NE 13.8 mph - N/A   Partly Cloudy
12:01 PM 75.2 °F 66.2 °F 73% 29.99 in 10.0 mi NE 13.8 mph - N/A   Scattered Clouds
12:53 PM 75.7 °F 64.9 °F 69% 29.96 in 10.0 mi NE 15.0 mph - N/A   Clear
1:53 PM 72.0 °F 66.0 °F 81% 29.92 in 10.0 mi NE 19.6 mph - N/A   Clear
2:53 PM 76.1 °F 66.0 °F 71% 29.90 in 10.0 mi NE 18.4 mph 24.2 mph N/A   Scattered Clouds
2:56 PM 75.2 °F 66.2 °F 73% 29.91 in 10.0 mi NE 17.3 mph - N/A   Partly Cloudy
3:53 PM 75.2 °F 66.9 °F 75% 29.91 in 10.0 mi NE 18.4 mph - N/A   Partly Cloudy
4:53 PM 71.1 °F 64.9 °F 81% 29.92 in 10.0 mi NNE 16.1 mph - N/A   Clear
4:56 PM 77.0 °F 66.2 °F 69% 29.92 in 10.0 mi NNE 15.0 mph - N/A   Clear
5:53 PM 73.8 °F 65.7 °F 76% 29.94 in 10.0 mi NNE 13.8 mph - N/A   Clear
6:53 PM 73.0 °F 64.0 °F 73% 29.94 in 10.0 mi NNE 12.7 mph - N/A   Scattered Clouds
7:53 PM 66.0 °F 64.9 °F 96% 29.95 in 10.0 mi North 6.9 mph - 0.00 in   Mostly Cloudy
8:00 PM 71.6 °F 68.0 °F 88% 29.96 in 10.0 mi North 9.2 mph - N/A   Mostly Cloudy
8:40 PM 71.6 °F 68.0 °F 88% 29.97 in 10.0 mi NE 20.7 mph 24.2 mph 0.00 in   Overcast
8:53 PM 71.6 °F 68.0 °F 88% 29.97 in 10.0 mi NE 19.6 mph - 0.00 in   Mostly Cloudy
9:53 PM 75.2 °F 64.4 °F 69% 29.99 in 7.0 mi NE 12.7 mph 21.9 mph 0.00 in Rain Light Rain
10:53 PM 66.9 °F 64.9 °F 93% 29.99 in 10.0 mi NE 12.7 mph - 0.00 in   Clear
11:53 PM 66.9 °F 66.0 °F 97% 29.98 in 10.0 mi NE 10.4 mph - N/A   Scattered Clouds